Location: Bathurst
(33.4193°S, 149.5775°E)
Time: 08:55:33
(UTC+10:00)

Vanguard 1 Rocket - Pass Details

Date: 20 June 2021
Orbit: 650 x 4226 km, 34.3° (Epoch: 02 August)

Event Time Altitude Azimuth Distance (km) Brightness Sun altitude
Rises 13:52:57 0° 256° (WSW) 5,659 11.6 27.4°
Reaches altitude 10° 13:57:30 10° 258° (WSW) 4,079 11.0 27.0°
Maximum altitude 14:06:50 61° 335° (NNW) 1,199 9.1 26.0°
Drops below altitude 10° 14:12:06 10° 55° (NE) 2,361 9.6 25.4°
Sets 14:14:06 0° 59° (ENE) 3,134 10.2 25.2°
